Regional Weather Roundup
Issued by NWS

Home | Current Version | Previous Version | Text Only | Print | Product List | Glossary On
Versions: 1 2 3 4 5 6 7 8 9 10 11 12 13 14 15 16 17 18 19 20 21 22 23 24 25 26 27 28 29 30 31 32 33 34 35 36 37 38 39 40 41 42 43 44 45 46 47
000
ASUS46 KPQR 261910
RWROR

OREGON REGIONAL WEATHER ROUNDUP
NATIONAL WEATHER SERVICE PORTLAND OR
1100 AM PST MON JAN 26 2015

NOTE: "FAIR" INDICATES FEW OR NO CLOUDS BELOW 12,000 FEET WITH
NO SIGNIFICANT WEATHER AND/OR OBSTRUCTIONS TO VISIBILITY.

ORZ001>013-262000-
NORTHWEST OREGON


CITY           SKY/WX    TMP DP  RH WIND       PRES   REMARKS
ASTORIA        SUNNY     57  49  74 S10G20    29.97R
NEWPORT        PTSUNNY   55  52  88 S12G20    30.06R
PORTLAND       FOG       43  43 100 CALM      30.05R VSB 1/4
VANCOUVER WA   CLOUDY    44  42  93 CALM      30.04S
SCAPPOOSE      FOG       42  42 100 SE3       30.04R VSB 1
HILLSBORO      FOG       42  42 100 CALM      30.05R VSB 1/4
AURORA         FOG       42  42 100 CALM      30.06R VSB 1/4
MCMINNVILLE    FOG       44  43  96 CALM      30.06R VSB 3/4
SALEM          CLOUDY    43  42  97 E3        30.04S FOG
CORVALLIS      CLOUDY    43  41  93 CALM      30.06R VSB<1/4
EUGENE         FOG       45  44  97 S5        30.05R VSB 1/8
$$

ORZ021-028-262000-
SOUTHWEST OREGON


CITY           SKY/WX    TMP DP  RH WIND       PRES   REMARKS
NORTH BEND     MOSUNNY   55  54  94 S5        30.04S
BROOKINGS      MOSUNNY   59  48  66 S6        30.04S
ROSEBURG       FOG       46  45  96 CALM      30.05S VSB 1/2
SEXTON SUMMIT  MOSUNNY   58  32  37 S9        30.09S
MEDFORD        FOG       39  39 100 CALM      30.09F VSB<1/4
$$

ORZ014>016-041-262000-
COLUMBIA GORGE


CITY           SKY/WX    TMP DP  RH WIND       PRES   REMARKS
TROUTDALE      MOSUNNY   54  42  64 VRB3      30.03R
THE DALLES     CLOUDY    43  38  82 CALM      30.12F
$$

ORZ029>031-041-044-049-050-061>064-502-503-505>511-262000-
EASTERN OREGON


CITY           SKY/WX    TMP DP  RH WIND       PRES   REMARKS
REDMOND        MOSUNNY   60  35  39 SE10      30.08F
BEND           MOSUNNY   59  32  36 S8        30.10F
PRINEVILLE     SUNNY     59  36  41 SE9       30.10F
KLAMATH FALLS  MOSUNNY   49  36  61 N3        30.16S
LAKEVIEW       SUNNY     54  36  50 NE5       30.19F
HERMISTON      CLOUDY    38  36  92 N3        30.11S FOG
PENDLETON      FOG       35  34  96 CALM      30.07S VSB<1/4
JOHN DAY       SUNNY     57  32  38 E9        30.15F
MEACHAM        SUNNY     51  34  52 CALM      30.11F
LA GRANDE      SUNNY     48  30  49 S33G44    30.16F
BAKER CITY     SUNNY     43  34  70 E18       30.27F
BURNS          MOSUNNY   39  31  72 E3        30.23F
ROME             N/A     31  28  89 N6        30.23F WCI  25
ONTARIO        SUNNY     41  32  70 VRB3      30.35F
$$



USA.gov is the U.S. government's official web portal to all federal, state and local government web resources and services.